Back to catalog

LEGION 2

AliveScienceSSO
NORAD 59626·PAYLOAD·🇺🇸 United States

Launched May 2, 2024 from Vandenberg Space Force Base

Loading…

Next Passes (next 24 hours)

TLE

FreshSource: Space-Track

Epoch: Sep 14, 2026, 12:10 UTC

1 59626U 24081B   26257.50762356  .00002892  00000-0  14884-3 0  9998
2 59626  97.4955 334.5077 0012086  33.4106 326.7887 15.17175726131088

Track LEGION 2 in real time with AllMySat

Download on the App Store